Hourly Weather Sakkhar

Today, 15 August, Saturday

Time Temperature Precipitation Wind Pressure Humidity
00:00 +40°C° 0 mm 6 mps 739 mmHg 50%
01:00 +39°C° 0 mm 6 mps 739 mmHg 53%
02:00 +38°C° 0 mm 6 mps 739 mmHg 56%
03:00 +37°C° 0 mm 5 mps 739 mmHg 56%
04:00 +37°C° 0 mm 5 mps 739 mmHg 57%
05:00 +36°C° 0 mm 4 mps 739 mmHg 58%
06:00 +37°C° 0 mm 4 mps 740 mmHg 56%
07:00 +37°C° 0 mm 4 mps 740 mmHg 54%
08:00 +38°C° 0 mm 3 mps 740 mmHg 51%
09:00 +41°C° 0 mm 4 mps 740 mmHg 46%
10:00 +42°C° 0 mm 4 mps 740 mmHg 40%
11:00 +44°C° 0 mm 4 mps 741 mmHg 36%
12:00 +45°C° 0 mm 4 mps 740 mmHg 34%
13:00 +47°C° 0 mm 4 mps 740 mmHg 32%
14:00 +48°C° 0 mm 4 mps 739 mmHg 30%
15:00 +47°C° 0 mm 4 mps 739 mmHg 30%
16:00 +47°C° 0 mm 5 mps 738 mmHg 29%
17:00 +46°C° 0 mm 3 mps 739 mmHg 30%
18:00 +46°C° 0 mm 5 mps 739 mmHg 33%
19:00 +45°C° 0 mm 6 mps 739 mmHg 35%
20:00 +44°C° 0 mm 8 mps 740 mmHg 38%
21:00 +43°C° 0 mm 7 mps 740 mmHg 40%
22:00 +41°C° 0 mm 7 mps 740 mmHg 43%
23:00 +40°C° 0 mm 6 mps 740 mmHg 46%

Tomorrow, 16 August, Sunday

Time Temperature Precipitation Wind Pressure Humidity
00:00 +39°C° 0 mm 6 mps 740 mmHg 48%
01:00 +39°C° 0 mm 5 mps 740 mmHg 50%
02:00 +39°C° 0 mm 5 mps 740 mmHg 53%
03:00 +37°C° 0 mm 5 mps 740 mmHg 53%
04:00 +37°C° 0 mm 5 mps 740 mmHg 53%
05:00 +37°C° 0 mm 4 mps 740 mmHg 53%
06:00 +37°C° 0 mm 5 mps 741 mmHg 51%
07:00 +39°C° 0 mm 5 mps 741 mmHg 49%
08:00 +39°C° 0 mm 5 mps 742 mmHg 47%
09:00 +41°C° 0 mm 5 mps 742 mmHg 42%
10:00 +43°C° 0 mm 5 mps 742 mmHg 37%
11:00 +46°C° 0 mm 5 mps 742 mmHg 32%
12:00 +47°C° 0 mm 4 mps 741 mmHg 30%
13:00 +48°C° 0 mm 4 mps 741 mmHg 29%
14:00 +48°C° 0 mm 4 mps 740 mmHg 27%
15:00 +48°C° 0 mm 4 mps 740 mmHg 26%
16:00 +48°C° 0 mm 4 mps 739 mmHg 26%
17:00 +49°C° 0 mm 4 mps 739 mmHg 25%
18:00 +48°C° 0 mm 5 mps 739 mmHg 27%
19:00 +46°C° 0 mm 6 mps 739 mmHg 29%
20:00 +45°C° 0 mm 7 mps 739 mmHg 31%
21:00 +45°C° 0 mm 6 mps 739 mmHg 33%
22:00 +44°C° 0 mm 6 mps 740 mmHg 35%
23:00 +42°C° 0 mm 6 mps 740 mmHg 37%

Day after tomorrow, 17 August, Monday

Time Temperature Precipitation Wind Pressure Humidity
00:00 +41°C° 0 mm 6 mps 740 mmHg 40%
01:00 +41°C° 0 mm 6 mps 740 mmHg 43%
02:00 +40°C° 0 mm 6 mps 739 mmHg 47%
03:00 +39°C° 0 mm 5 mps 739 mmHg 48%
04:00 +39°C° 0 mm 5 mps 739 mmHg 49%
05:00 +39°C° 0 mm 5 mps 740 mmHg 50%
06:00 +39°C° 0 mm 5 mps 740 mmHg 49%
07:00 +39°C° 0 mm 5 mps 740 mmHg 48%
08:00 +40°C° 0 mm 5 mps 741 mmHg 47%
09:00 +42°C° 0 mm 5 mps 741 mmHg 42%
10:00 +43°C° 0 mm 5 mps 741 mmHg 36%
11:00 +46°C° 0 mm 5 mps 741 mmHg 30%
12:00 +47°C° 0 mm 5 mps 740 mmHg 29%
13:00 +48°C° 0 mm 5 mps 740 mmHg 27%
14:00 +49°C° 0 mm 5 mps 740 mmHg 25%
15:00 +49°C° 0 mm 5 mps 739 mmHg 25%
16:00 +48°C° 0 mm 5 mps 738 mmHg 25%
17:00 +48°C° 0 mm 5 mps 738 mmHg 26%
18:00 +47°C° 0 mm 6 mps 738 mmHg 27%
19:00 +46°C° 0 mm 6 mps 738 mmHg 29%
20:00 +45°C° 0 mm 7 mps 739 mmHg 31%
21:00 +44°C° 0 mm 7 mps 739 mmHg 36%
22:00 +43°C° 0 mm 7 mps 740 mmHg 41%
23:00 +41°C° 0 mm 7 mps 740 mmHg 46%

18 August, Tuesday

Time Temperature Precipitation Wind Pressure Humidity
00:00 +40°C° 0 mm 7 mps 740 mmHg 50%
01:00 +39°C° 0 mm 7 mps 740 mmHg 54%
02:00 +36°C° 0 mm 7 mps 740 mmHg 58%
03:00 +36°C° 0 mm 7 mps 740 mmHg 58%
04:00 +36°C° 0 mm 7 mps 740 mmHg 57%
05:00 +36°C° 0 mm 7 mps 740 mmHg 57%
06:00 +36°C° 0 mm 7 mps 741 mmHg 55%
07:00 +38°C° 0 mm 6 mps 741 mmHg 54%
08:00 +38°C° 0 mm 6 mps 742 mmHg 52%
09:00 +40°C° 0 mm 6 mps 742 mmHg 47%
10:00 +42°C° 0 mm 6 mps 742 mmHg 41%
11:00 +44°C° 0 mm 6 mps 742 mmHg 36%
12:00 +45°C° 0 mm 6 mps 741 mmHg 33%
13:00 +46°C° 0 mm 6 mps 740 mmHg 30%
14:00 +47°C° 0 mm 6 mps 740 mmHg 27%
15:00 +47°C° 0 mm 6 mps 739 mmHg 29%
16:00 +46°C° 0 mm 6 mps 739 mmHg 30%
17:00 +46°C° 0 mm 7 mps 738 mmHg 32%
18:00 +44°C° 0 mm 7 mps 739 mmHg 36%
19:00 +41°C° 0 mm 8 mps 739 mmHg 41%
20:00 +40°C° 0 mm 9 mps 739 mmHg 46%
21:00 +39°C° 0 mm 9 mps 740 mmHg 49%
22:00 +38°C° 0 mm 9 mps 740 mmHg 52%
23:00 +37°C° 0 mm 8 mps 740 mmHg 54%

19 August, Wednesday

Time Temperature Precipitation Wind Pressure Humidity
00:00 +35°C° 0 mm 8 mps 740 mmHg 57%
01:00 +35°C° 0 mm 7 mps 740 mmHg 60%
02:00 +34°C° 0 mm 7 mps 740 mmHg 62%
03:00 +34°C° 0 mm 7 mps 740 mmHg 64%
04:00 +34°C° 0 mm 6 mps 740 mmHg 65%
05:00 +33°C° 0 mm 6 mps 740 mmHg 66%
06:00 +34°C° 0 mm 6 mps 740 mmHg 65%
07:00 +34°C° 0 mm 5 mps 740 mmHg 64%
08:00 +35°C° 0 mm 5 mps 740 mmHg 63%
09:00 +37°C° 0 mm 5 mps 740 mmHg 55%
10:00 +40°C° 0 mm 5 mps 740 mmHg 47%
11:00 +42°C° 0 mm 5 mps 740 mmHg 40%
12:00 +43°C° 0 mm 4 mps 740 mmHg 36%
13:00 +45°C° 0 mm 4 mps 739 mmHg 33%
14:00 +47°C° 0 mm 4 mps 738 mmHg 30%
15:00 +47°C° 0 mm 4 mps 738 mmHg 30%
16:00 +47°C° 0 mm 5 mps 737 mmHg 29%
17:00 +47°C° 0 mm 5 mps 737 mmHg 29%
18:00 +45°C° 0 mm 6 mps 737 mmHg 35%
19:00 +44°C° 0 mm 7 mps 737 mmHg 40%
20:00 +41°C° 0 mm 8 mps 738 mmHg 46%
21:00 +40°C° 0 mm 8 mps 738 mmHg 50%
22:00 +38°C° 0 mm 8 mps 738 mmHg 54%
23:00 +37°C° 0 mm 8 mps 739 mmHg 58%

20 August, Thursday

Time Temperature Precipitation Wind Pressure Humidity
00:00 +35°C° 0 mm 8 mps 739 mmHg 60%
01:00 +35°C° 0 mm 8 mps 738 mmHg 62%
02:00 +34°C° 0 mm 7 mps 738 mmHg 64%
03:00 +34°C° 0 mm 6 mps 738 mmHg 65%
04:00 +34°C° 0 mm 6 mps 738 mmHg 66%
05:00 +33°C° 0 mm 5 mps 738 mmHg 67%
06:00 +34°C° 0 mm 5 mps 738 mmHg 64%
07:00 +34°C° 0 mm 4 mps 739 mmHg 62%
08:00 +35°C° 0 mm 4 mps 739 mmHg 60%
09:00 +37°C° 0 mm 3 mps 739 mmHg 54%
10:00 +39°C° 0 mm 3 mps 739 mmHg 49%
11:00 +42°C° 0 mm 3 mps 739 mmHg 43%
12:00 +43°C° 0 mm 3 mps 739 mmHg 38%
13:00 +45°C° 0 mm 3 mps 738 mmHg 34%
14:00 +46°C° 0 mm 3 mps 738 mmHg 30%
15:00 +46°C° 0 mm 3 mps 737 mmHg 29%
16:00 +47°C° 0 mm 4 mps 737 mmHg 28%
17:00 +48°C° 0 mm 4 mps 737 mmHg 27%
18:00 +46°C° 0 mm 5 mps 737 mmHg 31%
19:00 +45°C° 0 mm 6 mps 738 mmHg 35%
20:00 +43°C° 0 mm 8 mps 738 mmHg 39%
21:00 +41°C° 0 mm 8 mps 739 mmHg 44%
22:00 +39°C° 0 mm 8 mps 740 mmHg 49%
23:00 +37°C° 0 mm 8 mps 740 mmHg 55%
Show more